Regional Weather Roundup
Issued by NWS Charleston, SC

Current Version | Previous Version | Graphics & Text | Print | Product List | Glossary On
Versions: 1 2 3 4 5 6 7 8 9 10 11 12 13 14 15 16 17 18 19 20 21 22 23 24 25 26 27 28 29 30 31 32 33 34 35 36 37 38 39 40 41 42 43 44 45 46 47 48 49 50
154
ASUS42 KCHS 140213
RWRCHS

REGIONAL WEATHER ROUNDUP
NATIONAL WEATHER SERVICE CHARLESTON SC
900 PM EST SAT FEB 13 2016

NOTE: "FAIR" INDICATES FEW OR NO CLOUDS BELOW 12,000 FEET WITH NO
SIGNIFICANT WEATHER AND/OR OBSTRUCTIONS TO VISIBILITY.

NOT ALL STATIONS ARE QUALITY CONTROLLED BY THE NATIONAL
WEATHER SERVICE. USE DATA WITH CAUTION...ESPECIALLY
DEWPOINT OBSERVATIONS.

SCZ027-030-031-034>040-042>050-140300-
...SOUTHEAST SOUTH CAROLINA...

CITY           SKY/WX    TMP DP  RH WIND       PRES   REMARKS
N CHARLESTON   CLEAR     40  10  29 N10       30.37R WCI  33
WATERFRONT PRK   N/A     44  23  43 N8        30.20R
MOUNT PLEASANT FAIR      34  28  80 CALM      30.37R
JOHNS ISLAND   FAIR      37  25  60 N3        30.36R
PINOPOLIS        N/A     43  25  49 NE9       30.27R
MONCKS CORNER  FAIR      32  19  59 CALM      30.37R
SUMMERVILLE    FAIR      37  18  44 N3        30.37R
BEAUFORT MCAS  CLEAR     37  30  75 N3        30.36R
BEAUFORT ARPT  FAIR      39  30  70 CALM      30.35R
HILTON HEAD IS CLEAR     39  32  75 N3        30.37R
WALTERBORO     CLEAR     41  12  30 NE6       30.37R
ALLENDALE      FAIR      39  21  48 CALM      30.35R

...SOUTHERN MIDLANDS AND PEE DEE...

CITY           SKY/WX    TMP DP  RH WIND       PRES   REMARKS
GEORGETOWN     FAIR      34  16  47 NE6       30.39R WCI  29
KINGSTREE      FAIR      32  19  59 CALM      30.38R
ORANGEBURG     CLEAR     37   8  30 NE3       30.36R
BARNWELL       FAIR      37  23  56 E3        30.36S
AIKEN          FAIR      32  21  64 NE6       30.38R WCI  26
MANNING        FAIR      32  21  64 CALM      30.38R
COLUMBIA       CLEAR     33   8  35 CALM      30.36R
SUMTER         CLEAR     29  15  56 NE7       30.35R WCI  22
FLORENCE       CLEAR     32  11  41 N8        30.39R WCI  25
MYRTLE BEACH   CLEAR     34  12  40 N9        30.40R WCI  26
N MYRTLE BEACH CLEAR     31  14  49 NE6       30.38R WCI  25

$$

GAZ063-065-086>088-099>101-113>116-118-119-134>141-150-140300-
...SOUTHEAST GEORGIA...

CITY           SKY/WX    TMP DP  RH WIND       PRES   REMARKS
SAVANNAH ARPT  CLEAR     39  28  64 CALM      30.36R
HUNTER AAF     CLEAR     39  26  60 CALM      30.32R
FORT STEWART   CLEAR     37  28  69 CALM      30.32R
STATESBORO     CLEAR     39  27  62 CALM      30.35R
SYLVANIA       CLEAR     35  32  88 CALM      30.35S
CLAXTON        FAIR      36  32  87 CALM      30.35S

...CSRA...CENTRAL AND FAR SOUTHEAST GEORGIA...

CITY           SKY/WX    TMP DP  RH WIND       PRES   REMARKS
THOMSON        CLEAR     37  19  46 W3        30.40R
AUGUSTA-BUSH   CLEAR     33  20  58 CALM      30.36R
AUGUSTA-DANIEL CLEAR     41  13  31 NW3       30.35R
SWAINSBORO     FAIR      37  19  48 NW5       30.37R WCI  34
VIDALIA        CLEAR     41  18  38 N5        30.35R
EASTMAN        FAIR      38  14  38 CALM      30.40R
HAZLEHURST     FAIR      44  16  32 N6        30.34S
ALMA           CLEAR     41  24  51 NW3       30.34R
WAYCROSS       CLEAR     44  30  59 CALM      30.34R
JESUP          FAIR      45  30  57 N6        30.35R
BAXLEY         FAIR      45  19  36 N5        30.35R
BRUNSWICK      CLEAR     41  37  87 CALM      30.35R
SAINT SIMONS   CLEAR     43  36  76 CALM      30.34R

$$

SCZ027-028-034-036>038-045-046-048>050-GAZ119-141-140300-
...LAKE AND SUPPLEMENTAL COASTAL OBSERVATIONS...

STATION/POSITION TIME  TEMP    WIND        PRES    WAVE   SWELL
                       AIR SEA DIR/SP/G            HT/PER HT/PER/DIR
                 (UTC) (F)     (DEG/KT/KT) (MB)    (FT/S) (FT/S/D)
WINYAH BAY       NOT AVBL
LAKE MURRAY      0100   38     360/  1/  6 1027.1R
ACE BASIN NERRS  0045   38        CALM     1027.0
FORT PULASKI     0100   44 49  100/  2/  2 1027.2R
SAPELO ISLAND    0100   39        CALM     1027.0R

$$

ANZ835-935-AMZ111-154-330-350-352-354-370-450-454-472-140300-
...C-MAN AND BUOY OBSERVATIONS...

STATION/POSITION TIME  TEMP    WIND        PRES    WAVE   SWELL
                       AIR SEA DIR/SP/G            HT/PER HT/PER/DIR
                 (UTC) (F)     (DEG/KT/KT) (MB)    (FT/S) (FT/S/D)
BUOY 41004       0150   47 66  360/ 10/ 14 1027.3R   3/ 6   3/ 6
BUOY 41008       0150   48 53   60/  6/  8 1027.6R   2/ 6   2/ 60/ 6
FOLLY BEACH CMAN 0200   42     350/  7/  9 1028.2R
CAPERS NEARSHORE 0108   44      70/  6/  8 1027.0R
FRIPP NEARSHORE  0100   47      80/ 10/ 12 1026.1R


STATION/POSITION TIME  TEMP    WIND        PRES    WAVE   SWELL
                       AIR SEA DIR/SP/G            HT/PER HT/PER/DIR
                 (UTC) (F)     (DEG/KT/KT) (MB)    (FT/S) (FT/S/D)
5E ST. MARYS GA  0121      55                N/A     2/ 5
FRYING PAN BUOY  0100   42 63  340/ 17/ 23 1027.8R
BUOY 41025       0150   36 72  330/ 23/ 31 1027.1R   5/ 5   2/ 50/ 9
CAPE LOOKOUT NC  NOT AVBL
BUOY 41002       0150   49 68  330/ 21/ 27   N/A    10/ 8   7/340/ 8
BUOY 41010       0120   61 72              1023.9R
ST AUGUSTINE FL  0200   52 58   10/ 14/ 16 1027.0R


$$




USA.gov is the U.S. government's official web portal to all federal, state and local government web resources and services.